| time (UTC) | temp F | wind direction | speed knots | gust knots | rain 1hr in | rain 24hr in | rain mn in | humidity % | barometer mb |
| 20260906233253 | 94 | 183 | 0.0 | 1.7 | 0.00 | 0.00 | 0.00 | 19 | 1001.7 |
| 20260906232307 | 94 | 183 | 0.0 | 0.0 | 0.00 | 0.00 | 0.00 | 19 | 1001.8 |
| 20260906231246 | 94 | 183 | 0.9 | 6.1 | 0.00 | 0.00 | 0.00 | 19 | 1001.8 |
| 20260906225044 | 95 | 183 | 0.0 | 0.0 | 0.00 | 0.00 | 0.00 | 19 | 1001.8 |
| 20260906224042 | 94 | 183 | 0.0 | 4.3 | 0.00 | 0.00 | 0.00 | 19 | 1001.8 |
| 20260906223015 | 94 | 173 | 0.0 | 0.0 | 0.00 | 0.00 | 0.00 | 18 | 1001.9 |
| 20260906222020 | 94 | 173 | 0.9 | 0.0 | 0.00 | 0.00 | 0.00 | 19 | 1002.0 |
| 20260906221003 | 94 | 173 | 0.0 | 3.5 | 0.00 | 0.00 | 0.00 | 19 | 1002.2 |
| 20260906215955 | 94 | 173 | 0.0 | 3.5 | 0.00 | 0.00 | 0.00 | 18 | 1002.5 |
| 20260906215007 | 94 | 173 | 0.0 | 1.7 | 0.00 | 0.00 | 0.00 | 19 | 1002.6 |
| 20260906213938 | 94 | 173 | 0.9 | 0.0 | 0.00 | 0.00 | 0.00 | 20 | 1002.8 |
| 20260906212943 | 94 | 173 | 0.0 | 5.2 | 0.00 | 0.00 | 0.00 | 19 | 1003.1 |
| 20260906212008 | 94 | 167 | 0.0 | 2.6 | 0.00 | 0.00 | 0.00 | 18 | 1003.2 |
| 20260906210937 | 94 | 167 | 0.0 | 0.0 | 0.00 | 0.00 | 0.00 | 17 | 1003.4 |
| 20260906204745 | 94 | 167 | 0.0 | 0.0 | 0.00 | 0.00 | 0.00 | 17 | 1003.8 |
| 20260906203737 | 93 | 167 | 0.0 | 0.0 | 0.00 | 0.00 | 0.00 | 18 | 1004.0 |
| 20260906202721 | 93 | 167 | 0.0 | 6.1 | 0.00 | 0.00 | 0.00 | 18 | 1004.1 |
| 20260906201658 | 93 | 167 | 2.6 | 7.8 | 0.00 | 0.00 | 0.00 | 17 | 1004.3 |
| 20260906200710 | 94 | 178 | 1.7 | 6.1 | 0.00 | 0.00 | 0.00 | 17 | 1004.3 |
| 20260906195725 | 94 | 180 | 0.0 | 0.0 | 0.00 | 0.00 | 0.00 | 17 | 1004.4 |
| 20260906194749 | 94 | 180 | 0.0 | 0.0 | 0.00 | 0.00 | 0.00 | 16 | 1004.6 |
| 20260906193737 | 94 | 180 | 0.0 | 0.0 | 0.00 | 0.00 | 0.00 | 17 | 1004.7 |
| 20260906192752 | 93 | 180 | 0.0 | 2.6 | 0.00 | 0.00 | 0.00 | 17 | 1004.8 |
| 20260906191740 | 93 | 179 | 0.0 | 2.6 | 0.00 | 0.00 | 0.00 | 17 | 1005.0 |
| 20260906190730 | 93 | 179 | 0.0 | 0.0 | 0.00 | 0.00 | 0.00 | 18 | 1005.2 |
| 20260906185714 | 92 | 178 | 0.0 | 0.0 | 0.00 | 0.00 | 0.00 | 19 | 1005.3 |
| 20260906183542 | 92 | 328 | 0.0 | 0.0 | 0.00 | 0.00 | 0.00 | 20 | 1005.8 |
| 20260906182551 | 92 | 328 | 0.0 | 2.6 | 0.00 | 0.00 | 0.00 | 20 | 1005.9 |
| 20260906181546 | 91 | 328 | 0.9 | 1.7 | 0.00 | 0.00 | 0.00 | 22 | 1006.2 |
| 20260906180539 | 91 | 328 | 0.9 | 4.3 | 0.00 | 0.00 | 0.00 | 22 | 1006.4 |
| 20260906175537 | 91 | 331 | 0.0 | 0.0 | 0.00 | 0.00 | 0.00 | 24 | 1006.6 |
| 20260906174538 | 89 | 332 | 0.0 | 2.6 | 0.00 | 0.00 | 0.00 | 25 | 1006.7 |
| 20260906173550 | 89 | 335 | 0.0 | 0.0 | 0.00 | 0.00 | 0.00 | 27 | 1006.7 |
| 20260906171430 | 88 | 335 | 0.0 | 0.0 | 0.00 | 0.00 | 0.00 | 29 | 1007.0 |
| 20260906170425 | 87 | 335 | 0.0 | 0.0 | 0.00 | 0.00 | 0.00 | 31 | 1007.2 |
| 20260906165408 | 86 | 335 | 0.0 | 0.0 | 0.00 | 0.00 | 0.00 | 31 | 1007.3 |
| 20260906164400 | 85 | 335 | 0.0 | 0.0 | 0.00 | 0.00 | 0.00 | 33 | 1007.4 |
| 20260906163356 | 84 | 335 | 0.0 | 0.0 | 0.00 | 0.00 | 0.00 | 31 | 1007.5 |
| 20260906162322 | 83 | 335 | 0.0 | 0.0 | 0.00 | 0.00 | 0.00 | 31 | 1007.5 |
| 20260906161321 | 83 | 335 | 0.0 | 0.0 | 0.00 | 0.00 | 0.00 | 31 | 1007.5 |
| 20260906155202 | 82 | 335 | 0.0 | 0.0 | 0.00 | 0.00 | 0.00 | 31 | 1007.5 |
| 20260906154152 | 83 | 335 | 0.0 | 0.0 | 0.00 | 0.00 | 0.00 | 31 | 1007.6 |
| 20260906153146 | 81 | 335 | 0.0 | 0.0 | 0.00 | 0.00 | 0.00 | 32 | 1007.5 |
| 20260906152121 | 80 | 333 | 0.0 | 1.7 | 0.00 | 0.00 | 0.00 | 33 | 1007.6 |
| 20260906151119 | 78 | 333 | 0.0 | 0.0 | 0.00 | 0.00 | 0.00 | 33 | 1007.7 |
| 20260906150135 | 78 | 333 | 0.0 | 0.9 | 0.00 | 0.00 | 0.00 | 33 | 1007.8 |
| 20260906144018 | 75 | 333 | 0.0 | 1.7 | 0.00 | 0.00 | 0.00 | 35 | 1007.7 |
| 20260906143030 | 74 | 333 | 0.0 | 0.0 | 0.00 | 0.00 | 0.00 | 37 | 1007.8 |
| 20260906142051 | 73 | 333 | 0.0 | 0.0 | 0.00 | 0.00 | 0.00 | 37 | 1007.8 |
| 20260906141056 | 73 | 333 | 0.0 | 0.0 | 0.00 | 0.00 | 0.00 | 39 | 1007.7 |
| 20260906140106 | 72 | 333 | 0.0 | 0.0 | 0.00 | 0.00 | 0.00 | 41 | 1007.8 |
| 20260906135102 | 72 | 333 | 0.0 | 0.0 | 0.00 | 0.00 | 0.00 | 36 | 1007.6 |
| 20260906134120 | 72 | 333 | 0.0 | 0.0 | 0.00 | 0.00 | 0.00 | 36 | 1007.5 |
| 20260906133133 | 71 | 333 | 0.0 | 0.0 | 0.00 | 0.00 | 0.00 | 35 | 1007.2 |
| 20260906132130 | 71 | 333 | 0.0 | 0.0 | 0.00 | 0.00 | 0.00 | 36 | 1007.2 |
| 20260906131116 | 71 | 333 | 0.0 | 1.7 | 0.00 | 0.00 | 0.00 | 36 | 1007.2 |
| 20260906130110 | 71 | 333 | 0.0 | 0.0 | 0.00 | 0.00 | 0.00 | 37 | 1007.2 |
| 20260906125043 | 71 | 333 | 0.0 | 0.0 | 0.00 | 0.00 | 0.00 | 37 | 1007.0 |
| 20260906124032 | 70 | 333 | 0.0 | 0.0 | 0.00 | 0.00 | 0.00 | 38 | 1007.0 |
| 20260906123038 | 70 | 333 | 0.0 | 0.0 | 0.00 | 0.00 | 0.00 | 38 | 1006.9 |
| 20260906122101 | 70 | 333 | 0.0 | 0.0 | 0.00 | 0.00 | 0.00 | 39 | 1007.0 |
| 20260906121034 | 71 | 333 | 0.0 | 0.0 | 0.00 | 0.00 | 0.00 | 39 | 1006.8 |
| 20260906120035 | 71 | 333 | 0.0 | 0.0 | 0.00 | 0.00 | 0.00 | 39 | 1006.8 |
| 20260906115038 | 71 | 333 | 0.0 | 0.0 | 0.00 | 0.00 | 0.00 | 40 | 1006.9 |
| 20260906112936 | 72 | 333 | 0.0 | 0.0 | 0.00 | 0.00 | 0.00 | 39 | 1006.7 |
| 20260906111907 | 73 | 333 | 0.0 | 0.0 | 0.00 | 0.00 | 0.00 | 39 | 1006.8 |
| 20260906110928 | 73 | 333 | 0.0 | 0.0 | 0.00 | 0.00 | 0.00 | 39 | 1006.8 |
| 20260906105948 | 74 | 333 | 0.0 | 0.0 | 0.00 | 0.00 | 0.00 | 38 | 1006.7 |
| 20260906103812 | 75 | 333 | 0.0 | 0.0 | 0.00 | 0.00 | 0.00 | 37 | 1006.7 |
| 20260906102756 | 75 | 333 | 0.0 | 0.0 | 0.00 | 0.00 | 0.00 | 36 | 1006.6 |
| 20260906101818 | 76 | 333 | 0.0 | 0.0 | 0.00 | 0.00 | 0.00 | 34 | 1006.5 |
| 20260906100757 | 76 | 333 | 0.0 | 0.0 | 0.00 | 0.00 | 0.00 | 34 | 1006.5 |
| 20260906095758 | 77 | 333 | 0.0 | 0.0 | 0.00 | 0.00 | 0.00 | 32 | 1006.5 |
| 20260906094812 | 77 | 333 | 0.0 | 0.0 | 0.00 | 0.00 | 0.00 | 31 | 1006.4 |
| 20260906092624 | 78 | 333 | 2.6 | 5.2 | 0.00 | 0.00 | 0.00 | 31 | 1006.1 |
| 20260906090450 | 77 | 274 | 3.5 | 7.0 | 0.00 | 0.00 | 0.00 | 33 | 1006.1 |
| 20260906085451 | 77 | 279 | 2.6 | 5.2 | 0.00 | 0.00 | 0.00 | 33 | 1006.0 |
| 20260906084452 | 77 | 256 | 2.6 | 5.2 | 0.00 | 0.00 | 0.00 | 33 | 1006.1 |
| 20260906083433 | 78 | 279 | 2.6 | 4.3 | 0.00 | 0.00 | 0.00 | 33 | 1006.2 |
| 20260906082409 | 78 | 279 | 1.7 | 3.5 | 0.00 | 0.00 | 0.00 | 33 | 1006.4 |
| 20260906080321 | 77 | 274 | 3.5 | 5.2 | 0.00 | 0.00 | 0.00 | 33 | 1006.7 |
| 20260906075250 | 77 | 269 | 4.3 | 6.1 | 0.00 | 0.00 | 0.00 | 34 | 1006.7 |
| 20260906074250 | 77 | 265 | 4.3 | 6.1 | 0.00 | 0.00 | 0.00 | 34 | 1006.8 |
| 20260906073240 | 76 | 267 | 3.5 | 6.1 | 0.00 | 0.00 | 0.00 | 34 | 1006.9 |
| 20260906072221 | 77 | 243 | 3.5 | 5.2 | 0.00 | 0.00 | 0.00 | 34 | 1006.9 |
| 20260906071211 | 77 | 250 | 2.6 | 4.3 | 0.00 | 0.00 | 0.00 | 34 | 1007.0 |
| 20260906070138 | 78 | 233 | 1.7 | 4.3 | 0.00 | 0.00 | 0.00 | 33 | 1006.9 |
| 20260906065109 | 78 | 257 | 0.0 | 0.9 | 0.00 | 0.00 | 0.00 | 33 | 1007.0 |
| 20260906064035 | 77 | 179 | 0.0 | 3.5 | 0.00 | 0.00 | 0.00 | 35 | 1007.0 |
| 20260906063019 | 77 | 123 | 0.0 | 3.5 | 0.00 | 0.00 | 0.00 | 35 | 1007.0 |
| 20260906060829 | 78 | 123 | 0.0 | 3.5 | 0.00 | 0.00 | 0.00 | 34 | 1006.7 |
| 20260906055830 | 78 | 200 | 0.0 | 5.2 | 0.00 | 0.00 | 0.00 | 34 | 1006.6 |
| 20260906054828 | 79 | 125 | 0.9 | 5.2 | 0.00 | 0.00 | 0.00 | 34 | 1006.4 |
| 20260906053818 | 79 | 295 | 1.7 | 7.0 | 0.00 | 0.00 | 0.00 | 33 | 1006.3 |
| 20260906051659 | 80 | 307 | 2.6 | 6.1 | 0.00 | 0.00 | 0.00 | 32 | 1006.2 |
| 20260906050649 | 80 | 293 | 2.6 | 7.0 | 0.00 | 0.00 | 0.00 | 32 | 1006.2 |
| 20260906045624 | 80 | 307 | 3.5 | 7.8 | 0.00 | 0.00 | 0.00 | 32 | 1006.2 |
| 20260906043449 | 80 | 319 | 3.5 | 6.1 | 0.00 | 0.00 | 0.00 | 32 | 1006.2 |
| 20260906041331 | 81 | 281 | 3.5 | 7.0 | 0.00 | 0.00 | 0.00 | 31 | 1006.1 |
| 20260906040310 | 82 | 293 | 4.3 | 7.0 | 0.00 | 0.00 | 0.00 | 30 | 1006.1 |
| 20260906033037 | 82 | 255 | 3.5 | 6.1 | 0.00 | 0.00 | 0.00 | 30 | 1006.0 |
| 20260906025747 | 83 | 308 | 4.3 | 7.8 | 0.00 | 0.00 | 0.00 | 30 | 1005.6 |
| 20260906023610 | 84 | 284 | 3.5 | 6.1 | 0.00 | 0.00 | 0.00 | 29 | 1005.3 |
| 20260906022543 | 84 | 303 | 2.6 | 5.2 | 0.00 | 0.00 | 0.00 | 30 | 1005.1 |
| 20260906021544 | 85 | 284 | 1.7 | 5.2 | 0.00 | 0.00 | 0.00 | 30 | 1005.2 |
| 20260906020559 | 85 | 280 | 1.7 | 5.2 | 0.00 | 0.00 | 0.00 | 31 | 1005.1 |
| 20260906015545 | 85 | 247 | 0.0 | 0.9 | 0.00 | 0.00 | 0.00 | 31 | 1004.9 |
| 20260906014537 | 86 | 249 | 0.0 | 0.0 | 0.00 | 0.00 | 0.00 | 31 | 1004.8 |
| 20260906013544 | 86 | 252 | 0.0 | 0.9 | 0.00 | 0.00 | 0.00 | 31 | 1004.8 |
| 20260906010422 | 88 | 251 | 0.0 | 2.6 | 0.00 | 0.00 | 0.00 | 29 | 1004.8 |
| 20260906005352 | 89 | 240 | 0.0 | 2.6 | 0.00 | 0.00 | 0.00 | 29 | 1004.8 |
| 20260906004353 | 89 | 260 | 2.6 | 6.1 | 0.00 | 0.00 | 0.00 | 29 | 1004.9 |
| 20260906003347 | 89 | 304 | 2.6 | 6.1 | 0.00 | 0.00 | 0.00 | 28 | 1004.8 |
| 20260906000124 | 92 | 285 | 0.9 | 6.1 | 0.00 | 0.00 | 0.00 | 27 | 1004.7 |
| 20260905235059 | 91 | 307 | 0.9 | 8.7 | 0.00 | 0.00 | 0.00 | 27 | 1004.7 |